Yeovilton, United Kingdom

10:49 PM BST on June 18, 2018 (GMT +0100)
Yeovil Radar Navy

Weather History for EGDY - October, 2017

Change the Weather History Date:

Friday, October 6, 2017

  Actual Average Record
Temperature  
Mean Temperature 49 °F -  
Max Temperature 60 °F 56 °F 66 °F (2013)
Min Temperature 38 °F 43 °F 32 °F (1999)
Degree Days  
Heating Degree Days 16    
Moisture  
Dew Point 44 °F    
Average Humidity 77    
Maximum Humidity 100    
Minimum Humidity 46    
Precipitation  
Precipitation 0.00 in - - ()
Sea Level Pressure  
Sea Level Pressure 30.33 in    
Wind  
Wind Speed 5 mph ()    
Max Wind Speed 10 mph    
Max Gust Speed -    
Visibility 10.6 miles    
Events      
Averages and records for this station are not official NWS values.
T = Trace of Precipitation, MM = Missing Value Source: Averaged Metar Reports

Daily Weather History Graph

Daily Weather History Graph

Search for Another Location

Airport or City:

Astronomy

Oct. 06, 2017 Rise Set
Actual Time 7:19 AM BST 6:37 PM BST
Civil Twilight 6:46 AM BST 7:10 PM BST
Nautical Twilight 6:07 AM BST 7:48 PM BST
Astronomical Twilight 5:29 AM BST 8:26 PM BST
Moon 7:25 PM BST (10/6) 7:47 AM BST (10/6)
Length of Visible Light 12h 23m
Length of Day
11h 17m
Full, 99% of the Moon is Illuminated
Oct 6
Full
Oct 12
Last Quarter
Oct 19
New
Oct 27
First Quarter
Nov 4
Full

Hourly Weather History & Observations

Time (BST) Temp. Windchill Dew Point Humidity Pressure Visibility Wind Dir Wind Speed Gust Speed Precip Events Conditions
12:00 AM 47 °F - 43 °F 79% 30.29 in 25 mi WNW 8.1 mph - -  
12:50 AM 44.6 °F 40.2 °F 42.8 °F 93% 30.27 in 6.2 mi WNW 8.1 mph - N/A   Unknown
1:00 AM 45 °F - 43 °F 88% 30.29 in 22 mi WNW 8.1 mph - -  
1:50 AM 44.6 °F 42.2 °F 42.8 °F 93% 30.27 in 6.2 mi WNW 4.6 mph - N/A   Unknown
2:00 AM 45 °F - 42 °F 87% 30.30 in 25 mi WNW 4.6 mph - -  
2:50 AM 44.6 °F 41.4 °F 41.0 °F 87% 30.27 in 6.2 mi WNW 5.8 mph - N/A   Unknown
3:00 AM 44 °F - 41 °F 87% 30.30 in 18 mi WNW 5.8 mph - -  
3:50 AM 42.8 °F 38.6 °F 41.0 °F 93% 30.30 in 6.2 mi West 6.9 mph - N/A   Unknown
4:00 AM 43 °F - 42 °F 93% 30.31 in 22 mi West 6.9 mph - -  
4:50 AM 42.8 °F - 42.8 °F 100% 30.30 in 6.2 mi NNE 2.3 mph - N/A   Unknown
5:00 AM 44 °F - 42 °F 90% 30.32 in 22 mi NNE 2.3 mph - -  
5:50 AM 44.6 °F 42.2 °F 41.0 °F 87% 30.30 in - WSW 4.6 mph - N/A   Clear
6:00 AM 44 °F - 42 °F 88% 30.31 in 16 mi WSW 4.6 mph - -   Scattered Clouds
6:50 AM 39.2 °F 37.0 °F 39.2 °F 100% 30.30 in - East 3.5 mph - N/A   Clear
7:00 AM 40 °F - 39 °F 94% 30.32 in 16 mi East 3.5 mph - -   Scattered Clouds
7:50 AM 39.2 °F - 39.2 °F 100% 30.33 in - SSE 1.2 mph - N/A   Clear
8:00 AM 40 °F - 39 °F 94% 30.35 in 16 mi SSE 1.2 mph - -   Scattered Clouds
8:50 AM 44.6 °F - 42.8 °F 93% 30.36 in - West 2.3 mph - N/A   Clear
9:00 AM 44 °F - 43 °F 94% 30.36 in 16 mi West 2.3 mph - -   Scattered Clouds
9:50 AM 51.8 °F - 46.4 °F 82% 30.36 in - West 5.8 mph - N/A   Clear
10:00 AM 51 °F - 47 °F 80% 30.38 in 16 mi West 5.8 mph - -   Scattered Clouds
10:50 AM 55.4 °F - 46.4 °F 72% 30.36 in 6.2 mi West 6.9 mph - N/A   Scattered Clouds
11:00 AM 54 °F - 47 °F 70% 30.38 in 16 mi West 6.9 mph - -   Scattered Clouds
11:50 AM 57.2 °F - 44.6 °F 63% 30.36 in 6.2 mi NW 8.1 mph - N/A   Mostly Cloudy
12:00 PM 57 °F - 44 °F 52% 30.38 in 16 mi NW 8.1 mph - -   Scattered Clouds
12:50 PM 59.0 °F - 44.6 °F 59% 30.36 in 6.2 mi North 6.9 mph - N/A   Mostly Cloudy
1:00 PM 59 °F - 45 °F 49% 30.37 in 16 mi North 6.9 mph - -   Partly Cloudy
1:50 PM 59.0 °F - 44.6 °F 59% 30.36 in 6.2 mi WNW 6.9 mph - N/A   Partly Cloudy
2:00 PM 59 °F - 44 °F 46% 30.37 in 15 mi WNW 6.9 mph - -   Scattered Clouds
2:50 PM 59.0 °F - 42.8 °F 55% 30.36 in 6.2 mi WNW 10.4 mph - N/A   Partly Cloudy
3:00 PM 58 °F - 44 °F 48% 30.37 in 19 mi WNW 10.4 mph - -   Scattered Clouds
3:50 PM 59.0 °F - 44.6 °F 59% 30.33 in 6.2 mi WNW 6.9 mph - N/A   Mostly Cloudy
4:00 PM 59 °F - 45 °F 48% 30.36 in 16 mi WNW 6.9 mph - -   Partly Cloudy
4:50 PM 57.2 °F - 46.4 °F 67% 30.33 in 6.2 mi WNW 6.9 mph - N/A   Mostly Cloudy
5:00 PM 58 °F - 46 °F 54% 30.35 in 16 mi WNW 6.9 mph - -   Scattered Clouds
5:50 PM 55.4 °F - 46.4 °F 72% 30.33 in 6.2 mi WNW 3.5 mph - N/A   Scattered Clouds
6:00 PM 56 °F - 46 °F 60% 30.34 in 22 mi WNW 3.5 mph - -   Partly Cloudy
6:50 PM 53.6 °F - 46.4 °F 77% 30.33 in 6.2 mi NW 3.5 mph - N/A   Scattered Clouds
7:00 PM 54 °F - 46 °F 66% 30.34 in 28 mi NW 3.5 mph - -   Partly Cloudy
7:50 PM 51.8 °F - 46.4 °F 82% 30.33 in 6.2 mi WSW 3.5 mph - N/A   Mostly Cloudy
8:00 PM 52 °F - 46 °F 72% 30.34 in 12 mi WSW 3.5 mph - -   Mostly Cloudy
8:50 PM 48.2 °F - 44.6 °F 87% 30.33 in 6.2 mi SW 4.6 mph - N/A   Scattered Clouds
9:50 PM 50.0 °F - 44.6 °F 82% 30.33 in 6.2 mi SW 4.6 mph - N/A   Mostly Cloudy
10:00 PM 50 °F - 45 °F 76% 30.34 in 22 mi SW 4.6 mph - -   Scattered Clouds
10:50 PM 50.0 °F - 44.6 °F 82% 30.30 in 6.2 mi SSW 4.6 mph - N/A   Overcast
11:00 PM 50 °F - 45 °F 76% 30.32 in 19 mi SSW 4.6 mph - -   Scattered Clouds
11:50 PM 50.0 °F - 46.4 °F 87% 30.30 in 6.2 mi SSW 3.5 mph - N/A   Mostly Cloudy